Location: Melbourne
(37.8120°S, 144.9677°E)
Time: 03:20:21
(UTC+11:00)

ISS - Visible Passes

Search period start: 24 February 2017 00:00
Search period end: 06 March 2017 00:00
Orbit: 399 x 408 km, 51.6° (Epoch: 24 February)

Date Brightness Start Highest point End Pass type
(mag) Time Alt. Az. Time Alt. Az. Time Alt. Az.
24 Feb -1.3 05:58:38 14° NNW 05:58:38 14° NNW 05:59:43 10° N visible
24 Feb -2.7 20:56:32 10° NNW 20:59:35 36° NE 21:02:35 10° ESE visible
24 Feb -0.8 22:33:20 10° W 22:35:19 22° SW 22:35:19 22° SW visible
25 Feb -2.0 21:40:18 10° WNW 21:43:27 41° SW 21:45:53 15° SSE visible
26 Feb -3.2 20:47:35 10° NW 20:50:52 82° SW 20:54:11 10° SE visible
26 Feb -0.4 22:25:49 10° WSW 22:27:46 15° SSW 22:28:44 13° S visible
27 Feb -0.8 21:32:22 10° W 21:34:58 21° SSW 21:37:36 10° SSE visible
28 Feb -1.6 20:39:12 10° W 20:42:15 34° SSW 20:45:20 10° SE visible
28 Feb 0.0 22:19:19 10° SSW 22:19:31 10° SSW 22:19:43 10° S visible
01 Mar -0.3 21:24:55 10° SW 21:26:37 13° SSW 21:28:18 10° S visible
02 Mar -0.6 20:31:19 10° WSW 20:33:44 19° SSW 20:36:11 10° SSE visible
04 Mar -0.4 20:23:56 10° SW 20:25:19 12° SSW 20:26:43 10° S visible
